Retour au catalogue

MOKHA-1

ActifScienceSSO
NORAD 67274·PAYLOAD·🇷🇺 Russia
Ce nom de satellite n'a pas encore été confirmé par des sources officielles.

Lancé Dec 28, 2025 depuis Vostochny Cosmodrome

Loading…

Prochains Passages (prochaines 24 heures)

TLE

FraisSource: Space-Track

Époque: Sep 14, 2026, 10:53 UTC

1 67274U 25313AC  26257.45355726  .00004894  00000-0  20760-3 0  9992
2 67274  97.3860 330.6125 0015475  54.8768 305.3917 15.23468747 39536

Suivez MOKHA-1 en temps réel avec AllMySat

Download on the App Store